Preview of NWS' New Version of Forecast
This preview is not operational and should not be used for support decisions.

Regional Weather Roundup (RWR)

Issued by National Weather Service (NWS)

                            
000
ASUS44 KMEG 240410
RWRTN 
TENNESSEE HOURLY STATE WEATHER ROUNDUP
NATIONAL WEATHER SERVICE MEMPHIS TN
1100 PM CDT SAT MAR 23 2019

TNZ002-004-019-021-049-052-054-088>092-240500-
WEST TENNESSEE
  
CITY           SKY/WX    TMP DP  RH WIND       PRES   REMARKS
MEMPHIS INTL   MOCLDY    59  37  44 E3        30.19R                  
NWS MEMPHIS      N/A     56 N/A N/A MISG        N/A                   
JACKSON        FAIR      52  37  56 CALM      30.22R                  
DYERSBURG      FAIR      55  38  52 CALM      30.22R                  
SOMERVILLE     CLOUDY    54  37  54 CALM      30.18F                  
COVINGTON      PTCLDY    54  45  71 CALM      30.20S                  
UNION CITY     MOCLDY    54  34  47 CALM      30.21R                  
BOLIVAR        MOCLDY    54  36  50 CALM      30.20S                  
PARIS          PTCLDY    52  32  46 CALM      30.21R                  
HUNTINGDON     CLEAR     54  36  50 CALM      30.21R                  
LEXINGTON      CLEAR     57  23  26 CALM      30.21R                  
SELMER         CLEAR     57  32  38 CALM      30.20R                  
SAVANNAH       CLEAR     46  41  81 CALM      30.21R                  
$$

TNZ008-025-027-028-033-062-065-066-240500-
NORTH MIDDLE TENNESSEE
  
CITY           SKY/WX    TMP DP  RH WIND       PRES   REMARKS
NASHVILLE      MOCLDY    47  28  47 CALM      30.22F                  
DICKSON        PTCLDY    52  21  30 CALM      30.20S                  
CLARKSVILLE    FAIR      50  25  37 SE3       30.21S                  
LEBANON        CLEAR     43  32  65 CALM      30.22S HAZE             
SMYRNA         FAIR      46  33  60 CALM      30.24F                  
MURFREESBORO   PTCLDY    48  30  49 CALM      30.22R                  
COOKEVILLE     PTCLDY    39  34  81 CALM      30.24S                  
GALLATIN       CLEAR     46  30  53 CALM      30.25F                  
CROSSVILLE     FAIR      41  19  41 CALM      30.26F                  
ROCKWOOD       CLEAR     46  12  25 CALM      30.26S                  
$$

TNZ061-075-076-078-094-096-097-240500-
SOUTH MIDDLE TENNESSEE
  
CITY           SKY/WX    TMP DP  RH WIND       PRES   REMARKS
LAWRENCEBURG   PTCLDY    48  28  46 E3        30.21S                  
LEWISBURG      CLEAR     37  34  87 CALM      30.22S                  
FAYETTEVILLE   CLEAR     54  21  28 E6        30.21F                  
TULLAHOMA      CLEAR     48  25  40 SE3       30.22F                  
WINCHESTER     CLEAR     43  36  75 SE5       30.24S                  
MCMINNVILLE    CLEAR     43  32  65 CALM      30.24S                  
COLUMBIA       CLEAR     45  34  65 CALM      30.19F                  
SHELBYVILLE    CLEAR     46  28  49 E5        30.22F                  
$$

TNZ017-018-042-046-047-240500-
NORTHEAST TENNESSEE
  
CITY           SKY/WX    TMP DP  RH WIND       PRES   REMARKS
TRI CITIES     FAIR      38  25  59 CALM      30.28F                  
ELIZABETHTON   FAIR      37  25  60 CALM      30.28F                  
GREENEVILLE    CLEAR     48  18  29 E6        30.26S                  
$$

TNZ012-013-036-069-073-074-240500-
CENTRAL EAST TENNESSEE
  
CITY           SKY/WX    TMP DP  RH WIND       PRES   REMARKS
KNOXVILLE      MOCLDY    48  23  37 CALM      30.26R                  
OAK RIDGE      FAIR      44  28  53 CALM      30.28S                  
DOWNTOWN KNOXV CLEAR     39  36  87 CALM      30.27R                  
GATLINBURG     CLEAR     39  27  60 CALM      30.26S                  
MORRISTOWN     CLEAR     41  28  60 CALM      30.25S                  
JACKSBORO      CLEAR     37  28  70 CALM      30.30S                  
$$

TNZ083-085-099-240500-
SOUTHEAST TENNESSEE
  
CITY           SKY/WX    TMP DP  RH WIND       PRES   REMARKS
CHATTANOOGA    FAIR      47  31  53 CALM      30.27S                  
DAYTON         CLEAR     39  32  75 CALM      30.27S                  
$$

SKY/WX REPORTED AS FAIR MEANS FEW OR NO CLOUDS BELOW
12 THOUSAND FEET.